Weather History for LEMD - October, 2013

Change the Weather History Date:

Friday, October 11, 2013

  Actual Average Record
Temperature  
Mean Temperature 62 °F -  
Max Temperature 76 °F 63 °F 87 °F (2011)
Min Temperature 48 °F 44 °F 41 °F (2002)
Degree Days  
Heating Degree Days 3    
Growing Degree Days 12 (Base 50)    
Moisture  
Dew Point 42 °F    
Average Humidity 52    
Maximum Humidity 82    
Minimum Humidity 19    
Precipitation  
Precipitation 0.00 in 0.06 in - ()
Sea Level Pressure  
Sea Level Pressure 29.96 in    
Wind  
Wind Speed 3 mph ()    
Max Wind Speed 13 mph    
Max Gust Speed 28 mph    
Visibility 11.9 miles    
Events      
Averages and records for this station are not official NWS values.
T = Trace of Precipitation, MM = Missing Value Source: Averaged Metar Reports

Daily Weather History Graph

Daily Weather History Graph

Search for Another Location

Airport or City:

Trip Planner

Search our weather history database for the weather conditions in past years. The results will help you decide how hot, cold, wet, or windy it might be!

Date:

Astronomy

Oct. 11, 2013 Rise Set
Actual Time 8:20 AM CEST 7:40 PM CEST
Civil Twilight 7:53 AM CEST 8:07 PM CEST
Nautical Twilight 7:21 AM CEST 8:39 PM CEST
Astronomical Twilight 6:50 AM CEST 9:10 PM CEST
Moon 2:52 PM CEST (10/11) 12:03 AM CEST (10/11)
Length of Visible Light 12h 14m
Length of Day
11h 19m
Waxing Crescent, 44% of the Moon is Illuminated
Oct 11
Waxing Crescent
Oct 12
First Quarter
Oct 19
Full
Oct 27
Last Quarter
Nov 3
New

Hourly Weather History & Observations

Time (CEST) Temp. Dew Point Humidity Pressure Visibility Wind Dir Wind Speed Gust Speed Precip Events Conditions
12:00 AM 59.0 °F 42.8 °F 55% 29.98 in - North 2.3 mph - N/A   Clear
12:30 AM 57.2 °F 42.8 °F 59% 29.98 in - NNE 2.3 mph - N/A   Clear
1:00 AM 57.2 °F 41.0 °F 55% 29.98 in - ESE 1.2 mph - N/A   Clear
1:30 AM 57.2 °F 41.0 °F 55% 30.01 in - NE 3.5 mph - N/A   Clear
2:00 AM 55 °F 41 °F 49% 29.99 in 19 mi NNE 1.2 mph - -  
2:00 AM 57.2 °F 41.0 °F 55% 30.01 in - Variable 2.3 mph - N/A   Clear
2:30 AM 57.2 °F 41.0 °F 55% 30.01 in - Calm Calm - N/A   Clear
3:00 AM 55.4 °F 41.0 °F 58% 30.01 in - Calm Calm - N/A   Clear
3:30 AM 55.4 °F 42.8 °F 63% 30.01 in - Variable 2.3 mph - N/A   Clear
4:00 AM 55.4 °F 42.8 °F 63% 30.01 in - Calm Calm - N/A   Clear
4:30 AM 53.6 °F 42.8 °F 67% 30.01 in - Variable 2.3 mph - N/A   Clear
5:00 AM 51.8 °F 42.8 °F 71% 29.98 in - Calm Calm - N/A   Clear
5:30 AM 53.6 °F 44.6 °F 72% 29.98 in - NE 3.5 mph - N/A   Clear
6:00 AM 51.8 °F 42.8 °F 71% 29.98 in - Variable 2.3 mph - N/A   Clear
6:30 AM 50.0 °F 44.6 °F 82% 29.98 in - Calm Calm - N/A   Clear
7:00 AM 50.0 °F 42.8 °F 76% 29.98 in - Variable 2.3 mph - N/A   Clear
7:30 AM 50.0 °F 42.8 °F 76% 29.98 in - NNW 3.5 mph - N/A   Clear
8:00 AM 48 °F 44 °F 79% 30.01 in 19 mi North 2.3 mph - -   Clear
8:00 AM 48.2 °F 42.8 °F 82% 29.98 in - North 2.3 mph - N/A   Clear
8:30 AM 48.2 °F 42.8 °F 82% 29.98 in - NNW 3.5 mph - N/A   Clear
9:00 AM 48.2 °F 42.8 °F 82% 29.98 in - North 5.8 mph - N/A   Clear
9:30 AM 50.0 °F 44.6 °F 82% 30.01 in - NNW 5.8 mph - N/A   Clear
10:00 AM 51.8 °F 44.6 °F 76% 30.01 in - North 5.8 mph - N/A   Clear
10:30 AM 55.4 °F 44.6 °F 67% 30.01 in - North 4.6 mph - N/A   Clear
11:00 AM 57.2 °F 44.6 °F 63% 30.01 in - North 3.5 mph - N/A   Clear
11:30 AM 59.0 °F 44.6 °F 59% 29.98 in - Variable 2.3 mph - N/A   Clear
12:00 PM 62.6 °F 44.6 °F 52% 29.98 in - NNW 3.5 mph - N/A   Clear
12:30 PM 64.4 °F 44.6 °F 49% 29.98 in - West 3.5 mph - N/A   Clear
1:00 PM 66.2 °F 44.6 °F 46% 29.98 in - West 3.5 mph - N/A   Clear
1:30 PM 68.0 °F 44.6 °F 43% 29.98 in - West 1.2 mph - N/A   Clear
2:00 PM 70 °F 44 °F 28% 29.88 in 19 mi WSW 4.6 mph - -   Clear
2:00 PM 69.8 °F 42.8 °F 38% 29.95 in - WSW 3.5 mph 15.0 mph N/A   Clear
2:30 PM 71.6 °F 41.0 °F 33% 29.92 in - Variable 5.8 mph - N/A   Clear
3:00 PM 71.6 °F 41.0 °F 33% 29.92 in - WSW 8.1 mph - N/A   Clear
3:30 PM 73.4 °F 41.0 °F 31% 29.89 in - SW 6.9 mph 27.6 mph N/A   Clear
4:00 PM 75.2 °F 41.0 °F 29% 29.89 in - SW 4.6 mph - N/A   Clear
4:30 PM 75.2 °F 41.0 °F 29% 29.89 in - SSW 5.8 mph 21.9 mph N/A   Clear
5:00 PM 75.2 °F 41.0 °F 29% 29.89 in - SW 8.1 mph - N/A   Clear
5:30 PM 75.2 °F 41.0 °F 29% 29.86 in 6.2 mi SW 6.9 mph 21.9 mph N/A   Partly Cloudy
6:00 PM 75.2 °F 41.0 °F 29% 29.86 in 6.2 mi SW 11.5 mph 24.2 mph N/A   Partly Cloudy
6:30 PM 75.2 °F 41.0 °F 29% 29.86 in 6.2 mi Variable 5.8 mph 19.6 mph N/A   Partly Cloudy
7:00 PM 75.2 °F 39.2 °F 27% 29.86 in 6.2 mi WNW 12.7 mph - N/A   Partly Cloudy
7:30 PM 73.4 °F 37.4 °F 27% 29.89 in 6.2 mi NW 12.7 mph - N/A   Partly Cloudy
8:00 PM 70 °F 37 °F 19% 29.83 in 19 mi WNW 11.5 mph - -   Scattered Clouds
8:00 PM 71.6 °F 37.4 °F 29% 29.89 in - WNW 11.5 mph - N/A   Clear
8:30 PM 68.0 °F 39.2 °F 35% 29.92 in - North 9.2 mph - N/A   Clear
9:00 PM 64.4 °F 41.0 °F 42% 29.92 in - North 9.2 mph - N/A   Clear
9:30 PM 62.6 °F 41.0 °F 45% 29.95 in - North 11.5 mph - N/A   Clear
10:00 PM 60.8 °F 39.2 °F 45% 29.95 in - NE 5.8 mph - N/A   Clear
10:30 PM 60.8 °F 39.2 °F 45% 29.98 in - NE 5.8 mph - N/A   Clear
11:00 PM 59.0 °F 41.0 °F 51% 29.98 in - NE 3.5 mph - N/A   Clear
11:30 PM 59.0 °F 39.2 °F 48% 29.98 in - NE 5.8 mph - N/A   Clear